TimeAST,TemperatureF,Dew PointF,Humidity,Sea Level PressureIn,VisibilityMPH,Wind Direction,Wind SpeedMPH,Gust SpeedMPH,PrecipitationIn,Events,Conditions,WindDirDegrees,DateUTC
12:00 AM,77.0,75.2,94,29.86,6.2,ESE,4.6,-,N/A,,Partly Cloudy,123,2012-11-08 04:00:00
1:00 AM,77.0,75.2,94,29.86,-9999.0,ESE,5.8,-,N/A,,Partly Cloudy,110,2012-11-08 05:00:00
2:00 AM,80,75,81,29.85,25,ESE,9.2,,,,Partly Cloudy,110,2012-11-08 06:00:00
2:00 AM,78.8,75.2,89,29.83,6.2,East,10.4,-,N/A,,Scattered Clouds,100,2012-11-08 06:00:00
3:00 AM,80.6,75.2,84,29.83,6.2,East,10.4,-,N/A,,Scattered Clouds,90,2012-11-08 07:00:00
4:00 AM,78.8,75.2,89,29.83,6.2,East,10.4,-,N/A,,Scattered Clouds,100,2012-11-08 08:00:00
5:00 AM,78,73,81,29.85,31,ESE,9.2,,,,Scattered Clouds,110,2012-11-08 09:00:00
5:00 AM,78.8,73.4,83,29.83,6.2,ESE,9.2,-,N/A,,Partly Cloudy,110,2012-11-08 09:00:00
6:00 AM,77.0,73.4,89,29.86,6.2,ESE,8.1,-,N/A,,Partly Cloudy,120,2012-11-08 10:00:00
7:00 AM,78.8,73.4,83,29.89,6.2,ESE,8.1,-,N/A,,Partly Cloudy,110,2012-11-08 11:00:00
8:00 AM,82.4,75.2,79,29.89,6.2,East,9.2,-,N/A,,Partly Cloudy,100,2012-11-08 12:00:00
9:00 AM,84.2,75.2,74,29.92,6.2,East,9.2,-,N/A,,Partly Cloudy,90,2012-11-08 13:00:00
10:00 AM,84.2,73.4,70,29.92,6.2,East,11.5,-,N/A,,Partly Cloudy,100,2012-11-08 14:00:00
11:00 AM,85,74,62,29.92,31,East,11.5,,,,Scattered Clouds,90,2012-11-08 15:00:00
11:00 AM,84.2,73.4,70,29.92,6.2,East,9.2,-,N/A,,Partly Cloudy,90,2012-11-08 15:00:00
12:00 PM,86.0,73.4,66,29.89,6.2,East,9.2,-,N/A,,Partly Cloudy,90,2012-11-08 16:00:00
1:00 PM,86.0,71.6,62,29.86,6.2,ENE,10.4,-,N/A,,Partly Cloudy,70,2012-11-08 17:00:00
2:00 PM,85,72,58,29.84,37,East,9.2,,,,Scattered Clouds,90,2012-11-08 18:00:00
3:00 PM,84.2,71.6,66,29.80,6.2,East,8.1,-,N/A,,Partly Cloudy,80,2012-11-08 19:00:00
4:00 PM,84.2,73.4,70,29.80,6.2,ENE,8.1,-,N/A,,Scattered Clouds,70,2012-11-08 20:00:00
5:00 PM,82,73,67,29.79,37,ESE,9.2,,,,Partly Cloudy,110,2012-11-08 21:00:00
5:00 PM,82.4,73.4,74,29.80,6.2,East,9.2,-,N/A,,Scattered Clouds,90,2012-11-08 21:00:00
6:00 PM,80.6,71.6,74,29.80,6.2,East,8.1,-,N/A,,Scattered Clouds,100,2012-11-08 22:00:00
7:00 PM,78.8,71.6,78,29.80,6.2,ESE,5.8,-,N/A,,Scattered Clouds,120,2012-11-08 23:00:00
8:00 PM,80,72,70,29.86,37,East,11.5,,,,Partly Cloudy,90,2012-11-09 00:00:00
8:00 PM,80.6,71.6,74,29.86,6.2,East,11.5,-,N/A,,Scattered Clouds,90,2012-11-09 00:00:00
9:00 PM,78.8,71.6,78,29.86,6.2,East,10.4,-,N/A,,Scattered Clouds,100,2012-11-09 01:00:00
10:00 PM,77.0,69.8,78,29.86,6.2,ESE,8.1,-,N/A,,Partly Cloudy,110,2012-11-09 02:00:00
11:00 PM,78.8,71.6,78,29.86,6.2,ESE,6.9,-,N/A,,Partly Cloudy,110,2012-11-09 03:00:00